{"data":{"norad_id":66283,"intl_designator":"2025-247U","name":"STARLINK-35774","alt_names":[],"object_type":"PAYLOAD","status":"ACTIVE","operator":null,"country":"US","launch_date":"2025-10-31","launch_site_code":"AFWTR","launch_vehicle":null,"mission":null,"orbit_class":"UNKNOWN","rcs_meters":null,"size_class":null,"mass_kg":null,"dimensions":null,"purposes":["comms"],"wikipedia_slug":null,"has_3d_model":false,"image_url":null,"decayed_at":null,"tle_current":{"epoch":"2026-09-20T13:43:25.150368Z","epoch_age_seconds":90485,"freshness":"FRESH","line1":"1 66283U 25247U   26263.57181887  .00025769  00000+0  77103-3 0  9998","line2":"2 66283  53.1591   3.2089 0000976  89.6027 270.5087 15.34406470 50915","mean_motion":15.3440647,"eccentricity":9.76e-5,"inclination_deg":53.1591,"raan_deg":3.2089,"arg_perigee_deg":89.6027,"mean_anomaly_deg":270.5087,"bstar":0.00077103,"rev_number":5091,"period_min":93.847362361552,"perigee_km":462.0163459406,"apogee_km":463.35167420177,"semimajor_km":6840.8210100712,"source":"CELESTRAK","updated_at":"2026-09-21T09:00:35.870540Z"}}}